Location: Unspecified
(0.0000°N, 0.0000°E)
Time: 17:52:22
(UTC+00:00)

STARLINK 1061 - Pass Details

Date: 15 January 2020
Orbit: 548 x 551 km, 53.0° (Epoch: 17 January)

Event Time Altitude Azimuth Distance (km) Brightness Sun altitude
Rises 19:25:29 0° 319° (NW) 2,700 7.4 -17.7°
Reaches altitude 10° 19:27:44 10° 315° (NW) 1,810 6.5 -18.2°
Maximum altitude 19:31:46 57° 236° (SW) 647 4.2 -19.2°
Drops below altitude 10° 19:35:50 10° 157° (SSE) 1,819 6.3 -20.1°
Sets 19:38:06 0° 153° (SSE) 2,715 7.1 -20.6°
